Location: Bli��� Lhota
(48.7570°N, 14.0120°E)
Time: 09:00:59
(UTC+00:00)

CZ-4 R/B - Pass Details

Date: 18 September 2020
Orbit: 530 x 600 km, 97.7° (Epoch: 27 October)

Event Time Altitude Azimuth Distance (km) Brightness Sun altitude
Rises 18:44:48 0° 209° (SSW) 2,838 5.1 -16.1°
Reaches altitude 10° 18:47:42 10° 231° (SW) 1,941 4.5 -16.5°
Maximum altitude 18:50:20 16° 270° (W) 1,584 4.6 -16.9°
Drops below altitude 10° 18:52:59 10° 309° (NW) 1,944 5.3 -17.3°
Sets 18:55:55 0° 331° (NNW) 2,845 5.8 -17.8°
